Miscellaneous Local Product
Issued by NWS North Platte, NE

Home | Current Version | Previous Version | Graphics & Text | Print | Product List | Glossary On
Versions: 1 2 3 4 5 6 7 8 9 10 11 12 13 14 15 16 17 18 19 20 21 22 23 24 25 26 27 28 29 30 31 32 33 34 35 36 37 38 39 40 41 42 43 44 45 46 47 48 49 50
000
AXUS43 KLBF 230510
MISLBF


WESTERN AND NORTH CENTRAL NEBRASKA HOURLY WEATHER ROUNDUP
NATIONAL WEATHER SERVICE NORTH PLATTE NE
1200 AM CDT SAT JUL 23 2016

NOTE: "FAIR" INDICATES FEW OR NO CLOUDS BELOW 12,000 FEET WITH NO
SIGNIFICANT WEATHER AND/OR OBSTRUCTIONS TO VISIBILITY.

NOTE: STATIONS NOT REPORTING VARIABLES SUCH AS SKY/WEATHER OR
PRESSURE ARE PROVIDED BY RAWS AND APRS NETWORKS AND ARE NOT UNDER
NATIONAL WEATHER SERVICE QUALITY CONTROL.

...OBSERVATIONS IN AND NEAR THE EASTERN PANHANDLE OF NEBRASKA...

CITY           SKY/WX    TMP DP  RH WIND       PRES   REMARKS
PINE RIDGE     CLOUDY    80  52  37 S17G26    29.92F
CHADRON        CLOUDY    77  58  51 S21G31    29.90F
ALLIANCE       CLOUDY    67  59  75 SE12      30.01S
SIDNEY         CLOUDY    68  61  78 SE16      30.07S
CRESCENT LAKE    N/A     68  61  77 SE8G20      N/A
$$

...OBSERVATIONS IN NORTHERN NEBRASKA AND FAR SOUTHERN SOUTH DAKOTA...

CITY           SKY/WX    TMP DP  RH WIND       PRES   REMARKS
WINNER         FAIR      84  74  71 E10       29.91F HX  91
VALENTINE      CLOUDY    84  74  71 E12       29.91F HX  91
THEDFORD       CLOUDY    72  65  79 S22G40    30.00R
AINSWORTH      CLOUDY    82  77  86 E12       29.92F
O`NEILL        CLOUDY    83  76  80 SE9       29.93F HX  92
ORD            CLOUDY    79  76  90 CALM      29.91F
BROKEN BOW     CLOUDY    76  73  91 N5        29.96S
VALENTINE NWR    N/A     83  73  71 SE12        N/A
BUTTE            N/A     82  78  87 E7          N/A  HX  90
HALSEY           N/A     82  74  77 CALM        N/A
EWING            N/A     80  78  93 E3          N/A
$$

...OBSERVATIONS IN SOUTHWEST NEBRASKA AND FAR NORTHEAST COLORADO...

CITY           SKY/WX    TMP DP  RH WIND       PRES   REMARKS
WRAY           LGT RAIN  73  63  68 N16G23    30.02F
HOLYOKE          N/A     72  68  88 W16       30.04F THUNDER
IMPERIAL       TSTM      72  69  90 N13       30.08R
OGALLALA       CLOUDY    69  62  78 SE14      30.04F
NORTH PLATTE   CLOUDY    73  62  68 NW21G29   30.04R THUNDER
MCCOOK         CLOUDY    78  71  79 NE5       29.93R
LEXINGTON      CLOUDY    78  71  78 E6        29.93S
STAPLETON        N/A     71  64  78 NE3G12      N/A
GOTHENBURG       N/A     79  70  74 E5          N/A
CALLAWAY         N/A     75  71  89 NE5         N/A
$$

...OBSERVATIONS IN CENTRAL LINCOLN COUNTY AREA...

CITY           SKY/WX    TMP DP  RH WIND       PRES   REMARKS
N.P. AIRPORT   CLOUDY    73  62  68 NW21G29   30.04R THUNDER
N.P. DOWNTOWN    N/A     68  65  90 W14G30      N/A
N.P. SOUTHEAST   N/A     71  66  84 NW10G25     N/A
N.P. HILLCREST   N/A     69  64  85 NW24G32     N/A
$$

...SOME OBSERVATIONS FROM AROUND THE REGION...

CITY           SKY/WX    TMP DP  RH WIND       PRES   REMARKS
DENVER         CLOUDY    80  50  34 SW6       30.12R
LARAMIE        CLOUDY    68  42  38 CALM      30.27F
CHEYENNE       CLOUDY    77  47  34 W9        30.17S
SCOTTSBLUFF    CLOUDY    68  59  73 E10       30.02F
RAPID CITY     CLOUDY    76  56  49 S9        29.92F
BISMARCK       TSTM      72  61  68 SE17G25   29.92F
PIERRE         CLOUDY    77  69  76 E15G25    29.93R
SIOUX FALLS    CLOUDY    82  78  88 E8        29.94R HX  91
OMAHA          CLOUDY    84  79  85 SE9       29.91S HX  96
GRAND ISLAND   CLOUDY    78  74  87 SE7       29.93F
KANSAS CITY    MOCLDY    81  74  79 S7        29.97R
WICHITA        CLEAR     85  69  58 S12       29.93S
OKLAHOMA CITY  CLEAR     78  69  73 SE7       29.99S
DALLAS         PTCLDY    87  68  52 SE9       29.98R HX  90
AMARILLO       CLEAR     80  52  37 S13       30.08F
DODGE CITY     CLEAR     80  60  50 S10       29.97S
HAYS           CLEAR     88  59  37 SW12      29.92R
GOODLAND       MOCLDY    83  56  39 CALM      30.00R
$$




USA.gov is the U.S. government's official web portal to all federal, state and local government web resources and services.